OneWeb SL0258

operational
NORAD ID: 48976 Int'l Des: 2021-060 Owner: ONEWEBN Country: UK Constellation: oneweb
LEOCIRCULARPOLARONEWEB_TYPE

关于 OneWeb SL0258

正在加载描述...

实时位置

正在加载3D地球...

即将过境

高度历史

Altitude vs Time

uPlot chart will show altitude changes over time

两行轨道根数

1 48976U 21060K 25304.65748909 -.00000028 00000-0 -10613-3 0 9991
2 48976 87.8979 274.3081 0002023 82.7107 277.4254 13.16594392209523
Epoch: Oct 31, 2025 • Age: 27 hours

当前状态

高度 1207.3 km
速度 7.25 km/s
星下点 -24.68°S, 53.41°W
发射日期 Jul 1, 2021
运行时间 4.3 years
类型 internet

技术详情

分类 Payload
质量 148.00 kg
干质量 140.00 kg
总质量 148.00 kg
长度 1.30 m
直径 1.00 m
跨度 5.00 m
形状 Trapezoid+2 pan
制造商 ONEWUS
平台类型 ARROW
阶段状态 In Orbit
所有者/国家 ONEWEBN/UK

大型星座

Loading constellations...